Regional Weather Roundup
Issued by NWS

Home | Current Version | Previous Version | Graphics & Text | Print | Product List | Glossary On
Versions: 1 2 3 4 5 6 7 8 9 10 11 12 13 14 15 16 17 18 19 20 21 22 23 24 25 26 27 28 29 30 31 32 33 34 35 36 37 38 39 40 41 42 43 44 45 46 47 48 49 50
000
ASUS43 KLOT 252308
RWRIL

ILLINOIS REGIONAL WEATHER ROUNDUP
NATIONAL WEATHER SERVICE CHICAGO/ROMEOVILLE IL
600 PM CDT MON MAY 25 2015

NOTE: "FAIR" INDICATES FEW OR NO CLOUDS BELOW 12,000 FEET WITH NO
SIGNIFICANT WEATHER AND/OR OBSTRUCTIONS TO VISIBILITY.

* THESE STATIONS ARE NOT UNDER NWS QUALITY CONTROL. THEY ALSO MAY NOT
  REPORT WEATHER SUCH AS PRECIPITATION OR FOG.

ILZ001-002-007-009-015-016-024-260000-
NORTHWEST ILLINOIS

CITY           SKY/WX    TMP DP  RH WIND       PRES   REMARKS
MOLINE         MOSUNNY   79  60  52 S15G24    29.88F HX  80
STERLING*      MOSUNNY   79  63  57 SW8       29.91S HX  80
SAVANNA*       SUNNY     79  59  50 SW15G21   29.88S HX  80
$$

ILZ003-004-008-010-011-017-018-260000-
NORTH CENTRAL ILLINOIS

CITY           SKY/WX    TMP DP  RH WIND       PRES   REMARKS
ROCKFORD       MOSUNNY   80  63  55 SW17G23   29.91R HX  81
FREEPORT*      PTSUNNY   75  61  61 SW15G25   29.91R
ROCHELLE*      SUNNY     77  63  61 SW20G28   29.92S
DE KALB*       MOSUNNY   75  62  63 SW17G24   29.93R
PERU*          MOSUNNY   80  62  52 SW17      29.93S HX  81
$$

ILZ005-006-012>014-019>023-260000-
NORTHEAST ILLINOIS

CITY           SKY/WX    TMP DP  RH WIND       PRES   REMARKS
CHICAGO-OHARE  PTSUNNY   77  60  55 SW14G24   29.91F
CHICAGO-MIDWAY PTSUNNY   81  60  48 SW17G23   29.92F HX  82
AURORA         MOSUNNY   79  60  52 SW16G24   29.93S HX  80
LANSING*       PTSUNNY   80  55  42 SW15      29.94F HX  80
JOLIET*        MOSUNNY   80  63  55 SW9       29.93F HX  81
WAUKEGAN       MOSUNNY   77  59  53 S21G31    29.89S
DUPAGE AIRPORT MOSUNNY   78  61  55 SW16G23   29.92S HX  80
KANKAKEE*      PTSUNNY   81  59  47 SW13G23   29.95S HX  82
WHEELING       MOSUNNY   78  59  51 SW16G24   29.92S
MORRIS*        MOSUNNY   78  61  55 SW12      29.92F HX  80
ROMEOVILLE*    MOSUNNY   78  60  53 SW16      29.92F
NORTHERLY ISL    N/A     78  56  46 SW8         N/A
$$

LMZ740>746-260000-
SOUTHERN LAKE MICHIGAN

STATION/POSITION SKY/WX   TEMP    WIND        PRES    VSBY  WAVE
                          AIR SEA DIR/SP/G                  HT/PER
                          (F)     (DEG/KT/KT) (MB)    (MI)  (FT/S)
SOUTHERN BUOY              46 38  200/ 12/ 12 1013.0F         2/ 5
HARRISON CRIB              75     210/ 22/ 27   N/A
BURNHAM HARBOR             78     240/  9/ 17   N/A
CALUMET HARBOR             79     220/ 11/ 17   N/A
BURNS HARBOR               76     220/ 16/ 23 1014.2S
MICHIGAN CITY              70     220/ 15/ 18   N/A
MICHIGAN CITY 6N           62 52  250/  8/ 10   N/A           1/ 3
ST. JOSEPH                 59 55  230/  6/  8   N/A           2/ 4
$$

ILZ025>027-034>036-040-047-049-050-058-095>099-260000-
WEST-CENTRAL ILLINOIS

CITY           SKY/WX    TMP DP  RH WIND       PRES   REMARKS
QUINCY         MOSUNNY   80  62  54 S12       29.89F HX  81
GALESBURG*     MOSUNNY   79  62  57 S12G18    29.91F HX  80
MACOMB*        MOSUNNY   80  62  54 S15       29.94F HX  81
JACKSONVILLE*  PTSUNNY   84  62  46 S9G17     29.92F HX  84
PITTSFIELD*    SUNNY     83  64  53 S9        29.91F HX  84
$$

ILZ028>032-037-038-041>044-048-051>054-059>061-260000-
CENTRAL ILLINOIS

CITY           SKY/WX    TMP DP  RH WIND       PRES   REMARKS
PONTIAC        MOSUNNY   82  61  49 SW12      29.95S HX  82
BLOOMINGTON    MOSUNNY   81  61  50 SW18      29.97F HX  82
DECATUR        PTSUNNY   80  59  48 S14       29.96F HX  81
PEORIA         SUNNY     83  57  41 SW15      29.93S HX  82
LACON*         SUNNY     79  59  49 S12G17    29.92F HX  80
LINCOLN*       MOSUNNY   82  61  48 S16       29.92S HX  83
SPRINGFIELD    MOSUNNY   83  63  50 S16       29.94F HX  84
TAYLORVILLE    PTSUNNY   79  66  65 S14G20    29.96F HX  81
$$

ILZ033-039-045-046-055>057-062-063-260000-
EAST-CENTRAL ILLINOIS

CITY           SKY/WX    TMP DP  RH WIND       PRES   REMARKS
CHAMPAIGN      PTSUNNY   81  62  52 S21       29.97F HX  82
DANVILLE*      CLOUDY    78  62  57 S17       29.96S HX  80
RANTOUL*       PTSUNNY   85  58  40 S15G23    29.96F HX  84
MATTOON        CLOUDY    77  65  66 S18G24    29.99F
PARIS*         CLOUDY    78  65  63 S15G22    30.01S HX  80
$$

ILZ079-100>102-260000-
SOUTHWEST ILLINOIS

CITY           SKY/WX    TMP DP  RH WIND       PRES   REMARKS
ALTON          MOSUNNY   81  70  69 SE15      29.93F HX  84
BELLEVILLE     MOSUNNY   81  70  70 S16       29.92F HX  84
CAHOKIA*       MOSUNNY   82  67  60 SE16G23   29.92F HX  84
SPARTA*        PTSUNNY   78  69  72 S13       29.97F HX  80
$$

ILZ064>066-069>071-074>076-080>082-084>086-088>090-092>094-260000-
SOUTH-CENTRAL ILLINOIS

CITY           SKY/WX    TMP DP  RH WIND       PRES   REMARKS
CARBONDALE     PTSUNNY   76  67  73 S13       29.98F
CAIRO*         PTSUNNY   77  68  75 SE13G18   30.01F
EFFINGHAM*     CLOUDY    78  61  55 SE9       30.01F
MARION         PTSUNNY   79  70  73 S17       30.00F HX  81
MT. VERNON     CLOUDY    77  66  69 S8        30.00F
CENTRALIA*     PTSUNNY   81  65  58 SE9       29.98F HX  83
SALEM*         PTSUNNY   80  66  62 S9        29.99F HX  82
METROPOLIS*    CLOUDY    75  69  82 SE9       30.02F
$$

ILZ067-068-072-073-078-083-087-091-260000-
SOUTHEAST ILLINOIS

CITY           SKY/WX    TMP DP  RH WIND       PRES   REMARKS
LAWRENCEVILLE  CLOUDY    77  66  68 S14       30.04S
FLORA*         CLOUDY    77  66  68 S15       30.01F
FAIRFIELD*     CLOUDY    77  67  70 S13       30.00F
HARRISBURG*    CLOUDY    75  68  77 S13       30.03F
ROBINSON*      CLOUDY    78  65  63 S12G21    30.03F HX  80
CARMI*         CLOUDY    75  63  64 S14       30.02F
$$

ABBREVIATIONS USED IN REMARKS
   TC - TEMPERATURE IN CELSIUS
  WCI - WIND CHILL INDEX
   HX - HEAT INDEX
  VSB - VISIBILITY
$$



USA.gov is the U.S. government's official web portal to all federal, state and local government web resources and services.